Voltar ao catálogo

SL-12 DEB

LostHEO
NORAD 41703·DEBRIS·🇷🇺 Russia

Lançado Mar 1, 2010 de Baikonur Cosmodrome

Loading…

Próximas Passagens (próximas 24 horas)

TLE

ObsoletoSource: Space-Track

Época: Oct 3, 2022, 00:00 UTC

1 41703U 10007V   22276.00000204  .00007031  00000-0  81136-2 0  9990
2 41703  64.6313 286.3576 5723372 356.2035   0.8841  4.32580651119422

Acompanhe SL-12 DEB em tempo real com AllMySat

Download on the App Store